Weather History for Lancaster, OH

Change the Weather History Date:

Wednesday, December 5, 2012

  Actual Average Record
Temperature  
Mean Temperature 36 °F -  
Max Temperature 44 °F 41 °F 71 °F (1982)
Min Temperature 28 °F 25 °F 1 °F (2007)
Degree Days  
Heating Degree Days 29    
Moisture  
Dew Point 30 °F    
Average Humidity 79    
Maximum Humidity 100    
Minimum Humidity 60    
Precipitation  
Precipitation 0.00 in - - ()
Sea Level Pressure  
Sea Level Pressure 30.31 in    
Wind  
Wind Speed 2 mph (North)    
Max Wind Speed 12 mph    
Max Gust Speed -    
Visibility 8 miles    
Events      
Averages and records for this station are not official NWS values.
T = Trace of Precipitation, MM = Missing Value Source: NWS Daily Summary

Daily Weather History Graph

Daily Weather History Graph

Search for Another Location

Airport:

Trip Planner

Search our weather history database for the weather conditions in past years. The results will help you decide how hot, cold, wet, or windy it might be!

Date:

Astronomy

Dec. 05, 2012 Rise Set
Actual Time 7:36 AM EST 5:05 PM EST
Civil Twilight 7:06 AM EST 5:36 PM EST
Nautical Twilight 6:33 AM EST 6:09 PM EST
Astronomical Twilight 6:00 AM EST 6:42 PM EST
Moon 11:53 PM EST (12/5) 12:00 PM EST (12/5)
Length of Visible Light 10h 29m
Length of Day
9h 29m
Waning Gibbous, 60% of the Moon is Illuminated
Dec 5
Waning Gibbous
Dec 6
Last Quarter
Dec 13
New
Dec 20
First Quarter
Dec 28
Full

Hourly Weather History & Observations

Time (EST) Temp. Windchill Dew Point Humidity Pressure Visibility Wind Dir Wind Speed Gust Speed Precip Events Conditions
12:53 AM 39.9 °F - 37.9 °F 93% 30.20 in 10.0 mi Calm Calm - N/A   Clear
1:53 AM 39.0 °F - 37.0 °F 93% 30.20 in 10.0 mi Calm Calm - N/A   Clear
2:53 AM 36.0 °F - 33.1 °F 89% 30.23 in 8.0 mi Calm Calm - N/A   Clear
3:53 AM 37.0 °F - 35.1 °F 93% 30.24 in 7.0 mi Calm Calm - N/A   Clear
4:53 AM 37.9 °F - 36.0 °F 93% 30.25 in 6.0 mi Calm Calm - N/A   Clear
5:53 AM 33.1 °F - 32.0 °F 96% 30.26 in 4.0 mi Calm Calm - N/A   Clear
6:33 AM 33.8 °F - 30.2 °F 87% 30.26 in 2.5 mi Calm Calm - N/A   Clear
6:42 AM 33.8 °F - 32.0 °F 93% 30.26 in 4.0 mi Calm Calm - N/A   Clear
6:53 AM 32.0 °F - 30.9 °F 96% 30.28 in 5.0 mi Calm Calm - N/A   Clear
7:17 AM 30.2 °F - 30.2 °F 100% 30.28 in 2.0 mi Calm Calm - N/A   Clear
7:24 AM 30.2 °F - 30.2 °F 100% 30.28 in 1.8 mi Calm Calm - N/A   Clear
7:46 AM 32.0 °F - 30.2 °F 93% 30.28 in 2.0 mi Calm Calm - N/A   Clear
7:53 AM 32.0 °F - 30.0 °F 92% 30.30 in 1.8 mi Calm Calm - N/A   Clear
8:02 AM 32.0 °F - 30.2 °F 93% 30.29 in 2.5 mi Calm Calm - N/A   Clear
9:53 AM 39.9 °F 32.9 °F 34.0 °F 79% 30.35 in 10.0 mi NNW 11.5 mph - N/A   Clear
10:53 AM 42.1 °F 36.6 °F 33.1 °F 70% 30.36 in 10.0 mi NNW 9.2 mph - N/A   Partly Cloudy
11:45 AM 42.8 °F 37.5 °F 33.8 °F 70% 30.34 in 10.0 mi North 9.2 mph - N/A   Mostly Cloudy
11:53 AM 43.0 °F 38.2 °F 32.0 °F 65% 30.35 in 10.0 mi North 8.1 mph - N/A   Scattered Clouds
12:39 PM 44.6 °F 38.8 °F 32.0 °F 61% 30.33 in 10.0 mi NNE 11.5 mph - N/A   Mostly Cloudy
12:53 PM 43.0 °F 38.2 °F 32.0 °F 65% 30.34 in 10.0 mi North 8.1 mph - N/A   Mostly Cloudy
1:05 PM 42.8 °F 38.0 °F 30.2 °F 61% 30.33 in 10.0 mi NNW 8.1 mph - N/A   Scattered Clouds
1:46 PM 42.8 °F 38.0 °F 30.2 °F 61% 30.32 in 10.0 mi NNW 8.1 mph - N/A   Mostly Cloudy
1:53 PM 43.0 °F 39.5 °F 30.0 °F 60% 30.33 in 10.0 mi North 5.8 mph - N/A   Partly Cloudy
2:53 PM 42.1 °F 38.4 °F 30.0 °F 62% 30.34 in 10.0 mi NNW 5.8 mph - N/A   Clear
3:53 PM 41.0 °F 35.8 °F 28.9 °F 62% 30.35 in 10.0 mi North 8.1 mph - N/A   Clear
4:53 PM 39.0 °F 34.0 °F 28.0 °F 65% 30.36 in 10.0 mi North 6.9 mph - N/A   Clear
5:53 PM 33.1 °F 28.7 °F 28.0 °F 82% 30.37 in 10.0 mi North 4.6 mph - N/A   Clear
6:53 PM 34.0 °F 27.2 °F 27.0 °F 75% 30.38 in 10.0 mi NE 8.1 mph - N/A   Clear
7:53 PM 33.1 °F 26.1 °F 25.0 °F 72% 30.38 in 10.0 mi ENE 8.1 mph - N/A   Clear
8:53 PM 32.0 °F - 23.0 °F 69% 30.36 in 10.0 mi Calm Calm - N/A   Clear
9:53 PM 30.9 °F 27.5 °F 23.0 °F 72% 30.36 in 10.0 mi East 3.5 mph - N/A   Clear
10:53 PM 28.9 °F - 23.0 °F 78% 30.36 in 10.0 mi Calm Calm - N/A   Clear
11:53 PM 30.0 °F 25.2 °F 23.0 °F 75% 30.35 in 10.0 mi ENE 4.6 mph - N/A   Clear